GW7021 Weather Reports


time (UTC)temp
C
wind
direction
speed
KPH
gust
KPH
rain 1hr
cm
rain 24hr
cm
rain mn
cm
humidity
%
barometer
mb
20260504082003 18 272 8.0 17.7 0.00 0.00 0.00 31 1019.7
20260504081504 18 322 6.4 9.7 0.00 0.00 0.00 30 1019.5
20260504081004 18 344 6.4 11.3 0.00 0.00 0.00 32 1019.5
20260504080504 18 289 6.4 11.3 0.00 0.00 0.00 31 1019.5
20260504050503 6 348 3.2 4.8 0.00 0.00 0.00 86 1019.7
20260504045504 5 250 3.2 6.4 0.00 0.00 0.00 88 1019.7
20260504045004 5 250 3.2 6.4 0.00 0.00 0.00 89 1019.7
20260504044004 4 95 4.8 6.4 0.00 0.00 0.00 89 1019.5
20260504043004 3 66 3.2 6.4 0.00 0.00 0.00 90 1019.5
20260504042504 2 77 3.2 3.2 0.00 0.00 0.00 90 1019.5
20260504042004 2 56 4.8 6.4 0.00 0.00 0.00 90 1019.5
20260504041504 2 63 4.8 6.4 0.00 0.00 0.00 90 1019.5
20260504041004 2 95 4.8 6.4 0.00 0.00 0.00 91 1019.5
20260504040004 1 163 3.2 6.4 0.00 0.00 0.00 90 1019.3
20260504035504 1 98 3.2 3.2 0.00 0.00 0.00 90 1019.4
20260504034504 1 98 3.2 6.4 0.00 0.00 0.00 90 1019.1
20260504033004 1 37 1.6 3.2 0.00 0.00 0.00 89 1019.1
20260504032504 1 83 1.6 3.2 0.00 0.00 0.00 88 1019.2
20260504032006 1 115 3.2 3.2 0.00 0.00 0.00 87 1019.2
20260504031504 2 98 3.2 3.2 0.00 0.00 0.00 89 1019.2
20260504031004 2 110 3.2 3.2 0.00 0.00 0.00 89 1019.1
20260504030504 2 121 1.6 3.2 0.00 0.00 0.00 88 1019.1
20260504030004 1 136 3.2 3.2 0.00 0.00 0.00 87 1019.2
20260504024504 2 39 3.2 4.8 0.00 0.00 0.00 88 1019.1
20260504024004 2 86 3.2 3.2 0.00 0.00 0.00 89 1019.0
20260504023504 2 85 3.2 4.8 0.00 0.00 0.00 88 1019.1
20260504023004 2 83 3.2 4.8 0.00 0.00 0.00 88 1019.3
20260504022504 2 61 3.2 4.8 0.00 0.00 0.00 88 1019.3
20260504021504 2 60 3.2 4.8 0.00 0.00 0.00 89 1019.4
20260504021004 2 60 3.2 4.8 0.00 0.00 0.00 89 1019.4
20260504020504 2 37 3.2 4.8 0.00 0.00 0.00 90 1019.2
20260504020004 2 57 3.2 4.8 0.00 0.00 0.00 90 1019.3
20260504015503 2 88 3.2 3.2 0.00 0.00 0.00 89 1019.3
20260504015005 2 79 1.6 3.2 0.00 0.00 0.00 88 1019.3
20260504014504 2 83 3.2 3.2 0.00 0.00 0.00 90 1019.4
20260504014004 2 79 3.2 3.2 0.00 0.00 0.00 90 1019.5
20260504013504 2 43 3.2 3.2 0.00 0.00 0.00 90 1019.4
20260504013004 2 344 3.2 3.2 0.00 0.00 0.00 88 1019.5
20260504012504 2 173 1.6 3.2 0.00 0.00 0.00 87 1019.4
20260504012004 2 129 1.6 3.2 0.00 0.00 0.00 88 1019.3
20260504011504 2 107 1.6 3.2 0.00 0.00 0.00 87 1019.3
20260504011004 2 90 1.6 3.2 0.00 0.00 0.00 86 1019.2
20260504010504 3 60 1.6 3.2 0.00 0.00 0.00 87 1019.2
20260504005004 3 48 3.2 6.4 0.00 0.00 0.00 90 1019.3
20260504004504 3 12 3.2 4.8 0.00 0.00 0.00 91 1019.1
20260504004004 3 355 3.2 4.8 0.00 0.00 0.00 91 1019.2
20260504003504 2 9 3.2 4.8 0.00 0.00 0.00 90 1019.1
20260504003004 2 27 1.6 3.2 0.00 0.00 0.00 89 1019.1
20260504002504 3 0 0.0 0.0 0.00 0.00 0.00 90 1019.3
20260504002004 3 0 0.0 0.0 0.00 0.00 0.00 90 1019.2
20260504001505 3 0 0.0 0.0 0.00 0.00 0.00 91 1019.3
20260504001005 2 314 0.0 3.2 0.00 0.00 0.00 91 1019.2
20260504000504 2 314 0.0 3.2 0.00 0.00 0.00 90 1019.2
20260503235504 2 81 1.6 3.2 0.00 0.00 0.00 90 1019.2
20260503234504 2 76 3.2 3.2 0.00 0.00 0.00 87 1019.2
20260503234004 3 45 1.6 3.2 0.00 0.00 0.00 86 1019.3
20260503233504 3 314 1.6 3.2 0.00 0.00 0.00 88 1019.3
20260503233004 3 314 0.0 3.2 0.00 0.00 0.00 88 1019.4
20260503232504 3 181 0.0 1.6 0.00 0.00 0.00 88 1019.3
20260503232004 3 155 0.0 3.2 0.00 0.00 0.00 89 1019.5
20260503231504 3 112 1.6 3.2 0.00 0.00 0.00 89 1019.5
20260503230504 3 68 1.6 3.2 0.00 0.00 0.00 87 1019.5
20260503230004 3 58 1.6 3.2 0.00 0.00 0.00 87 1019.6
20260503225504 3 59 3.2 3.2 0.00 0.00 0.00 88 1019.5
20260503225005 3 82 3.2 4.8 0.00 0.00 0.00 89 1019.6
20260503224505 3 98 3.2 4.8 0.00 0.00 0.00 88 1019.7
20260503224004 3 109 1.6 3.2 0.00 0.00 0.00 87 1019.8
20260503223504 3 108 1.6 3.2 0.00 0.00 0.00 88 1019.8
20260503222504 2 114 3.2 4.8 0.00 0.00 0.00 86 1019.8
20260503222004 3 80 1.6 3.2 0.00 0.00 0.00 85 1019.9
20260503221505 3 250 1.6 3.2 0.00 0.00 0.00 84 1019.8
20260503221004 3 235 1.6 3.2 0.00 0.00 0.00 83 1019.8
20260503220504 4 1 0.0 1.6 0.00 0.00 0.00 85 1019.8
20260503220005 4 1 0.0 1.6 0.00 0.00 0.00 85 1019.8
20260503215004 4 91 3.2 3.2 0.00 0.00 0.00 84 1019.7
20260503214504 4 117 3.2 4.8 0.00 0.00 0.00 85 1019.9
20260503214005 4 121 4.8 6.4 0.00 0.00 0.00 86 1019.9
20260503213505 3 130 4.8 6.4 0.00 0.00 0.00 86 1020.0
20260503213004 3 97 4.8 8.0 0.00 0.00 0.00 84 1020.0
20260503212504 4 66 4.8 8.0 0.00 0.00 0.00 85 1019.9
20260503212005 4 90 3.2 6.4 0.00 0.00 0.00 85 1020.0
20260503211505 4 110 3.2 3.2 0.00 0.00 0.00 84 1020.1
20260503211005 4 113 3.2 3.2 0.00 0.00 0.00 84 1020.2
20260503210008 5 45 4.8 6.4 0.00 0.00 0.00 85 1020.4
20260503205505 5 11 4.8 6.4 0.00 0.00 0.00 85 1020.3
20260503205005 4 300 4.8 6.4 0.00 0.00 0.00 85 1020.3
20260503204505 4 251 6.4 6.4 0.00 0.00 0.00 83 1020.3
20260503204005 5 243 4.8 6.4 0.00 0.00 0.00 81 1020.4
20260503203505 5 44 4.8 6.4 0.00 0.00 0.00 81 1020.4
20260503203005 6 63 4.8 6.4 0.00 0.00 0.00 82 1020.3
20260503202504 6 76 6.4 6.4 0.00 0.00 0.00 81 1020.3
20260503202004 5 73 4.8 6.4 0.00 0.00 0.00 82 1020.3
20260503201504 5 1 4.8 6.4 0.00 0.00 0.00 81 1020.4
20260503201005 5 222 4.8 6.4 0.00 0.00 0.00 81 1020.5
20260503200005 5 141 4.8 6.4 0.00 0.00 0.00 80 1020.4
20260503195505 5 146 3.2 3.2 0.00 0.00 0.00 80 1020.5
20260503195005 6 138 3.2 3.2 0.00 0.00 0.00 80 1020.4
20260503194504 6 150 1.6 3.2 0.00 0.00 0.00 80 1020.4
20260503193504 7 261 3.2 3.2 0.00 0.00 0.00 72 1020.4
20260503193004 8 316 3.2 6.4 0.00 0.00 0.00 65 1020.4
20260503192504 8 13 4.8 8.0 0.00 0.00 0.00 65 1020.5
20260503191005 7 44 6.4 8.0 0.00 0.00 0.00 76 1020.4
20260503190504 6 37 4.8 8.0 0.00 0.00 0.00 76 1020.4
20260503190004 7 65 3.2 4.8 0.00 0.00 0.00 76 1020.2
20260503185506 6 99 4.8 6.4 0.00 0.00 0.00 75 1020.3
20260503185005 7 106 4.8 6.4 0.00 0.00 0.00 70 1020.3
20260503184505 7 91 4.8 6.4 0.00 0.00 0.00 70 1020.2
20260503184006 7 92 4.8 6.4 0.00 0.00 0.00 70 1020.2
20260503183005 7 58 1.6 4.8 0.00 0.00 0.00 73 1019.8
20260503182505 7 357 1.6 4.8 0.00 0.00 0.00 67 1019.9
20260503182006 8 300 3.2 3.2 0.00 0.00 0.00 67 1020.0
20260503181505 7 121 3.2 4.8 0.00 0.00 0.00 67 1019.8
20260503181005 8 140 3.2 4.8 0.00 0.00 0.00 65 1019.8
20260503180005 9 291 3.2 4.8 0.00 0.00 0.00 62 1019.5
20260503175505 10 287 4.8 4.8 0.00 0.00 0.00 60 1019.5
20260503175005 10 278 4.8 4.8 0.00 0.00 0.00 60 1019.5
20260503174505 10 308 3.2 4.8 0.00 0.00 0.00 60 1019.3
20260503174005 10 346 3.2 3.2 0.00 0.00 0.00 59 1019.3
20260503173504 10 325 3.2 3.2 0.00 0.00 0.00 59 1019.1
20260503173005 11 290 4.8 6.4 0.00 0.00 0.00 56 1019.0
20260503172505 11 273 4.8 6.4 0.00 0.00 0.00 54 1019.0
20260503172005 11 272 4.8 6.4 0.00 0.00 0.00 53 1018.9
20260503171005 12 313 6.4 11.3 0.00 0.00 0.00 51 1018.6
20260503170505 12 326 9.7 12.9 0.00 0.00 0.00 51 1018.6
20260503151005 13 33 24.1 30.6 0.00 0.00 0.00 44 1017.9
20260503131003 12 290 20.9 24.1 0.00 0.00 0.00 61 1018.1
20260503130503 12 302 22.5 24.1 0.00 0.00 0.00 61 1018.3
20260503110503 12 36 20.9 27.4 0.00 0.00 0.00 55 1018.3
20260503090503 14 178 8.0 14.5 0.00 0.00 0.00 53 1017.0